Meteo pe oră la

Astăzi, 26 Ianuarie, Marţi

Timp Temperatura Precipitaţii Vânt Presiune Umiditate
00:00 +20°C° 0 mm 1 m/s 719 mmHg 61%
01:00 +19°C° 0 mm 1 m/s 718 mmHg 61%
02:00 +18°C° 0 mm 1 m/s 718 mmHg 62%
03:00 +18°C° 0 mm 1 m/s 718 mmHg 63%
04:00 +18°C° 0 mm 1 m/s 718 mmHg 64%
05:00 +18°C° 0 mm 1 m/s 718 mmHg 65%
06:00 +19°C° 0 mm 1 m/s 719 mmHg 61%
07:00 +20°C° 0 mm 1 m/s 719 mmHg 57%
08:00 +22°C° 0 mm 1 m/s 720 mmHg 53%
09:00 +23°C° 0 mm 1 m/s 720 mmHg 49%
10:00 +25°C° 0 mm 1 m/s 720 mmHg 46%
11:00 +26°C° 0 mm 2 m/s 720 mmHg 42%
12:00 +27°C° 0 mm 2 m/s 719 mmHg 40%
13:00 +28°C° 0 mm 2 m/s 718 mmHg 38%
14:00 +29°C° 0 mm 2 m/s 717 mmHg 35%
15:00 +27°C° 0 mm 2 m/s 717 mmHg 41%
16:00 +26°C° 0 mm 2 m/s 717 mmHg 47%
17:00 +25°C° 0 mm 1 m/s 717 mmHg 53%
18:00 +24°C° 0 mm 1 m/s 718 mmHg 54%
19:00 +23°C° 0 mm 1 m/s 718 mmHg 55%
20:00 +22°C° 0 mm 1 m/s 719 mmHg 56%
21:00 +21°C° 0 mm 1 m/s 719 mmHg 55%
22:00 +21°C° 0 mm 1 m/s 720 mmHg 54%
23:00 +21°C° 0 mm 1 m/s 720 mmHg 53%

Mâine, 27 Ianuarie, Miercuri

Timp Temperatura Precipitaţii Vânt Presiune Umiditate
00:00 +20°C° 0 mm 2 m/s 721 mmHg 48%
01:00 +20°C° 0 mm 2 m/s 721 mmHg 44%
02:00 +20°C° 0 mm 3 m/s 722 mmHg 39%
03:00 +18°C° 0 mm 3 m/s 722 mmHg 43%
04:00 +17°C° 0 mm 3 m/s 723 mmHg 46%
05:00 +14°C° 0 mm 3 m/s 724 mmHg 50%
06:00 +16°C° 0 mm 3 m/s 725 mmHg 47%
07:00 +16°C° 0 mm 3 m/s 726 mmHg 45%
08:00 +17°C° 0 mm 4 m/s 727 mmHg 43%
09:00 +18°C° 0 mm 3 m/s 728 mmHg 39%
10:00 +19°C° 0 mm 3 m/s 728 mmHg 34%
11:00 +20°C° 0 mm 3 m/s 728 mmHg 30%
12:00 +20°C° 0 mm 3 m/s 727 mmHg 29%
13:00 +20°C° 0 mm 3 m/s 727 mmHg 28%
14:00 +20°C° 0 mm 3 m/s 726 mmHg 27%
15:00 +19°C° 0 mm 3 m/s 727 mmHg 30%
16:00 +18°C° 0 mm 3 m/s 727 mmHg 33%
17:00 +16°C° 0 mm 2 m/s 727 mmHg 36%
18:00 +15°C° 0 mm 2 m/s 728 mmHg 38%
19:00 +14°C° 0 mm 2 m/s 728 mmHg 41%
20:00 +13°C° 0 mm 1 m/s 729 mmHg 44%
21:00 +13°C° 0 mm 2 m/s 729 mmHg 44%
22:00 +12°C° 0 mm 2 m/s 729 mmHg 43%
23:00 +12°C° 0 mm 2 m/s 730 mmHg 43%

Poimâine, 28 Ianuarie, Joi

Timp Temperatura Precipitaţii Vânt Presiune Umiditate
00:00 +12°C° 0 mm 2 m/s 730 mmHg 44%
01:00 +12°C° 0 mm 1 m/s 730 mmHg 44%
02:00 +11°C° 0 mm 1 m/s 729 mmHg 44%
03:00 +11°C° 0 mm 1 m/s 729 mmHg 46%
04:00 +11°C° 0 mm 1 m/s 729 mmHg 47%
05:00 +11°C° 0 mm 1 m/s 729 mmHg 49%
06:00 +12°C° 0 mm 1 m/s 730 mmHg 47%
07:00 +13°C° 0 mm 1 m/s 730 mmHg 45%
08:00 +14°C° 0 mm 1 m/s 731 mmHg 44%
09:00 +15°C° 0 mm 1 m/s 731 mmHg 41%
10:00 +17°C° 0 mm 2 m/s 730 mmHg 38%
11:00 +19°C° 0 mm 3 m/s 730 mmHg 36%
12:00 +20°C° 0 mm 3 m/s 729 mmHg 35%
13:00 +20°C° 0 mm 3 m/s 729 mmHg 35%
14:00 +21°C° 0 mm 3 m/s 728 mmHg 34%
15:00 +20°C° 0 mm 3 m/s 728 mmHg 38%
16:00 +19°C° 0 mm 3 m/s 728 mmHg 42%
17:00 +18°C° 0 mm 3 m/s 728 mmHg 47%
18:00 +17°C° 0 mm 2 m/s 728 mmHg 52%
19:00 +16°C° 0 mm 2 m/s 728 mmHg 58%
20:00 +15°C° 0 mm 2 m/s 729 mmHg 64%
21:00 +14°C° 0 mm 2 m/s 728 mmHg 69%
22:00 +14°C° 0 mm 1 m/s 728 mmHg 74%
23:00 +14°C° 0 mm 1 m/s 728 mmHg 79%

29 Ianuarie, Vineri

Timp Temperatura Precipitaţii Vânt Presiune Umiditate
00:00 +14°C° 0 mm 1 m/s 728 mmHg 79%
01:00 +14°C° 0 mm 1 m/s 727 mmHg 79%
02:00 +14°C° 0 mm 1 m/s 727 mmHg 79%
03:00 +14°C° 0 mm 1 m/s 727 mmHg 80%
04:00 +14°C° 0 mm 1 m/s 726 mmHg 81%
05:00 +14°C° 0 mm 1 m/s 726 mmHg 83%
06:00 +15°C° 0 mm 1 m/s 727 mmHg 80%
07:00 +16°C° 0 mm 1 m/s 727 mmHg 77%
08:00 +18°C° 0 mm 1 m/s 727 mmHg 74%
09:00 +19°C° 0 mm 2 m/s 727 mmHg 66%
10:00 +21°C° 0 mm 2 m/s 727 mmHg 58%
11:00 +22°C° 0 mm 3 m/s 726 mmHg 50%
12:00 +25°C° 0 mm 3 m/s 725 mmHg 48%
13:00 +26°C° 0 mm 3 m/s 724 mmHg 45%
14:00 +27°C° 0 mm 4 m/s 723 mmHg 42%
15:00 +26°C° 0 mm 3 m/s 723 mmHg 46%
16:00 +25°C° 0 mm 3 m/s 723 mmHg 49%
17:00 +24°C° 0 mm 3 m/s 722 mmHg 53%
18:00 +21°C° 0 mm 2 m/s 723 mmHg 62%
19:00 +20°C° 0 mm 2 m/s 723 mmHg 71%
20:00 +18°C° 0 mm 2 m/s 723 mmHg 79%
21:00 +18°C° 0 mm 2 m/s 723 mmHg 79%
22:00 +18°C° 0 mm 2 m/s 723 mmHg 78%
23:00 +18°C° 0 mm 2 m/s 722 mmHg 78%

30 Ianuarie, Sâmbătă

Timp Temperatura Precipitaţii Vânt Presiune Umiditate
00:00 +17°C° 0 mm 2 m/s 722 mmHg 77%
01:00 +17°C° 0 mm 2 m/s 721 mmHg 77%
02:00 +17°C° 0 mm 2 m/s 721 mmHg 76%
03:00 +17°C° 0 mm 2 m/s 721 mmHg 74%
04:00 +17°C° 0 mm 2 m/s 721 mmHg 73%
05:00 +17°C° 0 mm 2 m/s 720 mmHg 71%
06:00 +19°C° 0 mm 2 m/s 721 mmHg 67%
07:00 +20°C° 0 mm 2 m/s 721 mmHg 63%
08:00 +22°C° 0 mm 1 m/s 722 mmHg 59%
09:00 +25°C° 0 mm 1 m/s 722 mmHg 52%
10:00 +27°C° 0 mm 2 m/s 721 mmHg 45%
11:00 +29°C° 0 mm 2 m/s 721 mmHg 38%
12:00 +30°C° 0 mm 2 m/s 720 mmHg 36%
13:00 +31°C° 0 mm 2 m/s 720 mmHg 33%
14:00 +32°C° 0 mm 2 m/s 719 mmHg 30%
15:00 +31°C° 0 mm 2 m/s 719 mmHg 35%
16:00 +29°C° 0 mm 2 m/s 719 mmHg 40%
17:00 +28°C° 0 mm 1 m/s 719 mmHg 45%
18:00 +26°C° 0 mm 1 m/s 719 mmHg 49%
19:00 +25°C° 0 mm 1 m/s 720 mmHg 53%
20:00 +23°C° 0 mm 1 m/s 721 mmHg 57%
21:00 +23°C° 0 mm 1 m/s 721 mmHg 59%
22:00 +22°C° 0 mm 1 m/s 721 mmHg 61%
23:00 +22°C° 0 mm 1 m/s 721 mmHg 63%

31 Ianuarie, Duminică

Timp Temperatura Precipitaţii Vânt Presiune Umiditate
00:00 +21°C° 0 mm 1 m/s 721 mmHg 67%
01:00 +21°C° 0 mm 1 m/s 721 mmHg 71%
02:00 +21°C° 0 mm 1 m/s 722 mmHg 75%
03:00 +20°C° 0 mm 1 m/s 722 mmHg 76%
04:00 +20°C° 0 mm 1 m/s 722 mmHg 78%
05:00 +17°C° 0 mm 0 m/s 722 mmHg 80%
06:00 +19°C° 0 mm 0 m/s 723 mmHg 74%
07:00 +22°C° 0 mm 1 m/s 724 mmHg 69%
08:00 +23°C° 0 mm 1 m/s 725 mmHg 63%
09:00 +25°C° 0 mm 1 m/s 725 mmHg 61%
10:00 +26°C° 0 mm 2 m/s 725 mmHg 58%
11:00 +27°C° 0 mm 3 m/s 725 mmHg 55%
12:00 +26°C° 0 mm 3 m/s 724 mmHg 60%
13:00 +25°C° 0 mm 3 m/s 724 mmHg 66%
14:00 +23°C° 0 mm 4 m/s 723 mmHg 71%
15:00 +22°C° 0.1 mm 3 m/s 724 mmHg 75%
16:00 +23°C° 0.1 mm 2 m/s 724 mmHg 80%
17:00 +22°C° 0.1 mm 1 m/s 724 mmHg 85%
18:00 +22°C° 0.2 mm 1 m/s 725 mmHg 86%
19:00 +21°C° 0.2 mm 1 m/s 726 mmHg 86%
20:00 +21°C° 0.2 mm 1 m/s 727 mmHg 87%
21:00 +20°C° 0.2 mm 2 m/s 727 mmHg 87%
22:00 +19°C° 0.2 mm 2 m/s 727 mmHg 88%
23:00 +19°C° 0.2 mm 2 m/s 727 mmHg 88%
Arată mai mult

Formular de consimțământ

Meteoprog și furnizorii noștri de servicii pot stoca și accesa date personale, precum cookies, identificatori de dispozitiv sau alte tehnologii similare pe dispozitivul dumneavoastră și procesa astfel de date pentru a personaliza conținutul și reclamele, dar și pentru a oferi caracteristici de social media și pentru a analiza traficul.

  • Stocarea și/sau accesarea informațiilor pe dispozitivul dumneavoastră

    Cookies, identificatori de dispozitiv sau alte informații pot fi stocate sau accesate pe dispozitiv în scopurile indicate mai sus.

  • Reclame și conținut personalizat, evaluarea reclamelor și a conținutului, informații despre audiențe și dezvoltarea produselor

    Reclamele și conținutul pot fi personalizate pe baza unui profil. Pot fi adăugate date suplimentare pentru a personaliza mai bine reclamele și conținutul. Performanța reclamelor și conținutului poate fi măsurată. Pot fi obținute informații despre utilizatorii care au văzut reclamele și conținutul. Aceste date pot fi utilizate pentru a dezvolta sau îmbunătăți experiența utilizatorilor, sistemele și software-ul.

Dând clic pe ‘Sunt de acord’, permiteți utilizarea cookie-urilor menționate, a identificatorilor de dispozitiv, balizelor web sau altor tehnologii similare. Setările pot fi modificate din browser-ul dispozitivului dumneavoastră.

În anumite scopuri, interesele legitime pot prima asupra consimțământului. Puteți citi mai multe informații în acest sens în Politica privind Confidențialitatea Datelor și Cookie.